GFSSE_925_temp_021.txt.gz
Temp
31 26 24 24 24 24 24 24 24 24 24 24 23 23 23 22 23 23 22 22 21 21 21 21 21 21 21 21 21 21 22 22 21 21 20 20 20 20 21 22 22 22 20
30 25 24 24 24 24 24 24 24 24 24 24 24 23 23 22 22 22 22 22 22 21 21 22 22 22 22 21 21 21 21 21 21 21 21 20 20 21 21 21 22 21 20
29 25 24 24 24 24 24 24 24 24 24 24 23 23 23 23 22 22 22 22 22 21 21 21 21 21 22 21 21 21 21 21 21 21 22 23 22 21 21 20 22 20 20
29 26 25 24 24 24 24 24 24 24 24 23 23 23 23 22 22 21 22 22 22 22 21 21 21 21 21 21 21 21 21 21 23 21 22 24 24 20 20 20 20 20 20
29 28 24 24 24 24 24 24 23 23 23 23 22 22 22 21 21 21 22 22 22 22 21 21 21 21 21 22 22 21 21 21 23 23 23 25 24 21 20 20 20 20 20
30 29 23 24 24 24 24 24 23 23 23 22 22 22 22 21 21 21 21 21 22 22 22 22 21 21 22 22 21 21 21 22 23 23 25 24 23 22 21 20 20 20 20
30 26 23 23 24 24 24 23 23 23 23 22 22 21 22 22 22 22 22 22 22 22 22 21 21 21 21 21 21 21 21 23 23 24 25 24 22 22 21 20 20 20 20
31 28 24 23 23 23 23 23 23 23 23 22 22 22 22 22 22 22 22 22 22 22 22 22 22 21 22 21 21 21 21 23 24 26 25 24 22 22 20 20 20 19 19
30 28 25 24 23 23 22 22 23 22 23 22 22 22 22 22 22 22 22 22 22 21 22 22 22 21 22 22 22 21 22 23 23 24 26 25 23 22 20 20 20 20 20
29 28 27 26 24 24 23 23 23 23 22 22 21 21 22 23 23 23 23 23 22 22 21 21 22 21 21 22 22 22 22 23 23 23 25 24 24 23 20 20 20 20 20
28 29 26 25 25 25 24 23 23 23 21 22 22 22 22 25 24 24 24 23 22 22 22 22 22 22 21 21 21 22 22 23 24 23 22 24 24 23 21 20 20 20 20
29 29 28 26 25 24 24 23 23 23 24 24 24 22 23 25 24 25 24 24 23 22 21 21 22 22 22 22 21 21 21 24 24 25 23 23 24 23 21 20 21 20 20
29 28 28 27 25 24 25 23 23 22 23 24 23 23 24 24 25 25 24 24 24 23 24 23 22 22 22 22 23 22 23 23 24 24 23 24 24 23 21 21 21 21 21
29 28 27 26 26 26 26 25 24 24 24 23 23 22 22 23 23 24 25 24 23 23 24 24 24 25 24 22 22 23 22 23 24 25 24 24 24 23 22 21 21 21 20
30 30 28 26 25 25 26 25 25 24 24 25 23 23 22 23 23 23 23 24 23 23 22 21 23 24 24 23 22 23 23 22 22 23 25 24 24 23 22 21 21 21 21
30 29 28 27 25 25 24 24 24 25 25 25 26 24 23 23 22 22 21 22 22 22 21 21 24 24 25 25 23 23 23 22 22 22 23 24 24 23 23 22 21 21 21
30 29 28 27 26 25 24 24 23 25 26 26 26 25 24 23 23 22 23 22 22 24 23 20 20 25 24 25 25 24 24 23 23 23 22 23 24 24 23 23 21 21 22
30 28 27 26 26 25 24 24 25 25 26 26 26 25 24 24 23 22 23 23 22 24 25 22 23 24 24 24 25 25 24 24 24 23 22 23 24 24 23 23 22 22 22
28 27 25 24 24 24 24 24 24 24 25 27 27 26 24 23 24 23 24 24 22 22 21 21 23 25 23 24 25 25 25 24 24 24 22 23 23 24 24 24 23 22 22
28 26 25 24 24 24 24 24 25 26 24 24 25 25 25 24 23 22 22 23 22 21 22 23 24 25 25 26 26 26 25 25 24 25 23 22 22 22 23 23 22 20 20
27 26 25 24 23 23 24 24 25 25 24 23 24 25 24 23 23 22 22 22 21 22 24 25 25 25 26 26 24 25 26 26 25 24 23 22 22 22 22 23 22 21 21
25 25 24 22 23 23 24 25 24 24 25 23 25 24 23 22 22 21 21 21 21 21 22 22 23 22 22 22 23 25 27 28 27 25 23 23 22 23 22 22 22 21 21
25 25 24 21 21 23 24 24 23 24 23 24 25 25 25 23 23 22 21 21 20 20 21 21 21 21 22 22 22 25 27 28 29 26 23 24 24 23 22 22 22 21 22
27 26 26 22 22 21 23 23 24 23 24 26 25 25 23 23 22 21 21 21 20 20 20 20 21 21 21 21 21 23 25 26 25 25 24 23 23 23 22 22 22 21 22
27 26 24 23 22 22 23 23 24 23 26 25 25 24 24 24 23 22 21 21 20 20 20 20 20 20 21 22 21 22 24 25 24 24 24 23 24 24 23 23 23 23 23
27 25 24 23 23 23 23 23 23 23 23 24 23 24 25 25 23 22 21 21 20 19 20 20 20 20 20 21 20 21 21 24 25 23 22 23 24 23 25 23 24 25 24

GFSSE_925_temp_024.txt.gz
Temp
26 23 24 24 24 24 24 24 24 24 24 24 24 23 23 23 23 23 23 23 22 22 21 22 21 21 21 21 21 21 22 22 22 22 21 21 21 21 21 21 22 20 19
26 24 24 24 25 24 24 24 24 24 24 23 23 23 23 23 23 22 22 22 22 21 22 22 21 21 21 21 21 21 21 22 21 21 21 20 20 20 21 21 21 20 20
26 24 24 24 24 24 24 24 24 24 24 23 23 23 22 22 22 23 22 22 21 21 22 22 22 21 22 21 22 21 21 22 21 21 22 21 21 21 21 21 21 20 19
26 25 23 24 24 24 24 24 23 23 23 23 23 23 22 22 22 22 22 22 21 21 22 21 21 22 22 22 22 21 22 21 22 22 22 23 22 21 21 20 20 20 19
27 26 23 24 24 24 24 24 23 23 23 23 22 22 22 21 22 21 21 21 22 22 22 21 21 21 22 22 21 21 23 22 21 22 23 23 22 21 21 21 20 20 20
29 25 24 24 24 24 24 24 23 23 22 22 22 22 21 21 22 22 21 22 22 22 22 22 21 21 21 22 22 22 23 23 22 22 23 23 22 22 21 20 20 20 20
27 24 24 24 24 24 24 24 23 23 22 22 22 22 22 22 21 22 21 22 22 22 22 22 21 21 21 21 22 22 23 24 23 23 24 24 23 23 21 20 20 20 19
26 25 24 23 23 24 24 24 23 23 23 22 22 22 22 22 22 22 21 21 22 22 22 22 21 21 21 21 21 22 23 24 23 22 23 24 23 22 21 21 20 20 20
25 24 23 23 22 23 23 23 23 23 23 22 22 22 22 22 22 21 22 21 22 22 22 22 22 21 21 21 21 22 24 23 23 23 23 23 23 22 22 21 20 20 20
27 26 25 24 23 22 22 22 23 23 22 21 22 22 22 22 22 23 23 23 22 22 22 22 22 21 21 21 21 22 23 23 23 24 22 22 23 23 22 21 21 20 20
28 27 26 25 24 24 23 22 22 22 22 21 22 22 23 22 23 23 23 23 23 23 22 22 21 22 21 22 21 21 22 23 24 24 23 22 23 23 23 21 21 20 20
29 27 27 26 25 24 24 23 22 22 22 23 22 23 23 23 24 24 24 24 23 23 23 22 21 21 21 22 22 21 21 23 24 24 23 23 22 23 23 21 21 21 20
28 27 27 26 26 24 24 23 23 23 23 23 23 23 23 23 24 25 24 23 23 23 23 23 22 21 22 22 22 22 21 23 24 24 22 22 22 23 23 22 21 21 20
28 28 27 27 26 25 24 24 24 24 24 23 23 23 23 23 24 24 25 24 23 23 23 23 23 22 23 23 23 22 23 23 24 24 24 23 23 23 23 22 22 21 21
29 28 27 26 26 26 25 24 23 24 24 23 23 23 24 23 24 24 24 24 24 23 23 23 23 22 19 23 23 23 23 23 23 24 23 23 23 23 23 23 22 21 21
30 28 27 26 26 25 25 24 25 24 24 26 25 23 24 23 23 23 23 23 23 23 22 22 23 22 20 20 23 23 23 23 23 24 23 23 23 23 23 23 23 22 21
30 29 27 26 26 25 24 24 24 24 25 25 24 24 25 24 24 23 22 23 22 22 22 22 22 22 19 19 22 23 23 23 23 23 23 23 23 23 23 23 23 23 21
30 29 28 28 27 25 24 23 24 25 26 26 26 25 25 24 24 23 22 23 24 23 22 21 20 24 22 20 21 24 23 24 23 24 23 22 23 23 23 23 23 23 22
29 28 27 26 26 25 24 23 24 25 25 26 25 25 25 25 24 23 23 23 24 22 21 21 21 22 21 22 24 24 22 24 24 24 24 23 23 23 22 23 23 23 23
29 27 26 25 25 24 23 22 24 25 25 25 25 24 23 24 24 23 23 23 23 22 22 22 22 23 22 23 25 25 25 25 24 24 24 23 22 23 23 22 23 22 22
28 26 25 25 24 23 23 23 23 24 24 24 24 24 24 24 23 22 22 22 22 22 21 23 22 22 21 21 24 25 25 25 25 25 24 24 23 22 23 23 22 22 22
27 26 25 24 23 23 24 23 23 23 24 24 24 23 23 23 23 23 22 21 21 21 22 22 22 21 22 23 23 24 22 25 26 25 25 24 23 22 22 22 22 22 21
26 25 25 23 22 22 23 23 24 24 24 24 24 25 24 23 23 23 23 22 21 21 21 22 22 22 22 23 23 23 22 22 24 25 24 23 23 23 22 22 22 21 22
26 26 25 22 22 23 23 24 23 23 24 24 25 24 25 24 24 22 22 21 21 20 20 21 21 22 22 22 22 22 22 23 22 22 23 23 23 23 22 23 22 22 22
27 27 25 22 22 22 22 23 23 23 24 25 24 24 24 24 23 22 21 21 21 20 20 20 21 22 21 21 21 22 22 23 24 23 22 23 23 23 23 23 23 22 22
27 26 25 23 22 23 23 23 23 23 23 23 24 23 24 24 22 21 21 20 20 20 20 20 20 21 22 21 21 21 22 22 23 23 22 22 24 24 23 23 22 21 21

GFSSE_925_temp_030.txt.gz
Temp
23 24 24 24 24 24 23 23 23 23 23 23 23 23 23 23 23 23 23 23 23 23 21 21 22 21 21 21 21 21 21 20 20 20 20 20 20 20 20 20 20 20 20
24 23 24 24 24 24 23 23 24 24 23 23 23 23 23 23 23 22 23 23 23 22 21 21 21 21 21 21 21 21 20 21 21 21 20 20 20 20 20 20 19 20 19
24 24 24 24 24 24 24 24 24 23 23 23 23 23 23 23 22 22 22 22 22 22 22 21 21 21 21 21 21 21 21 22 22 20 21 21 21 20 20 20 20 20 19
24 24 24 24 24 24 24 23 23 23 23 23 23 23 22 22 22 22 22 22 22 21 22 21 21 21 21 21 21 21 20 20 21 20 21 21 20 20 20 20 19 19 19
23 24 24 24 24 24 24 23 23 23 23 23 23 22 22 22 22 22 21 22 22 21 21 21 21 21 21 21 21 22 21 21 21 21 21 21 20 20 20 20 19 19 19
24 24 24 24 24 24 23 23 23 23 23 23 22 22 22 21 21 21 21 22 22 22 21 21 21 21 22 22 21 22 22 21 22 21 21 21 21 20 20 19 20 19 19
24 24 24 24 24 23 23 23 23 23 22 22 21 22 22 22 22 22 22 22 22 21 22 21 21 21 22 22 21 22 22 22 22 21 21 22 22 21 20 20 20 19 19
25 24 24 24 24 23 23 23 22 22 22 21 21 22 22 22 22 22 22 22 22 22 22 22 22 21 22 22 22 22 22 22 22 22 22 22 22 21 20 20 20 19 19
24 24 24 24 24 23 23 22 22 22 22 22 22 22 22 22 22 22 22 22 22 22 22 22 22 21 21 22 22 22 22 22 21 22 22 22 22 21 20 20 20 20 19
24 24 24 24 24 23 23 23 23 23 23 23 23 22 22 22 22 22 22 22 22 22 22 22 22 21 21 22 23 22 22 22 22 22 22 22 22 21 20 20 20 20 19
23 24 24 24 24 24 24 23 23 22 23 23 22 22 22 22 22 22 22 22 22 22 21 22 22 21 22 22 22 22 23 22 22 22 22 22 22 22 20 20 21 21 20
23 24 25 25 24 24 24 23 23 22 22 22 22 22 22 23 23 22 23 23 22 21 21 21 21 21 21 22 22 21 22 23 22 22 22 22 22 22 21 21 21 21 20
25 24 24 25 24 24 24 24 23 23 23 22 22 23 23 23 23 23 23 23 23 22 21 22 22 21 21 22 22 22 22 22 22 22 22 22 22 22 21 21 21 21 21
24 25 25 25 24 24 24 23 23 23 23 24 23 23 23 23 23 23 23 23 23 23 22 22 22 22 22 22 21 22 22 22 23 22 22 22 22 22 21 21 21 21 21
24 24 24 24 24 24 24 24 23 23 23 23 24 23 24 23 24 24 23 23 23 23 22 23 22 22 22 22 22 22 23 23 22 22 22 22 22 23 22 21 21 21 21
25 25 25 24 24 24 24 24 24 23 23 23 24 24 24 24 23 24 23 24 23 23 23 22 22 22 22 22 22 22 22 23 23 22 23 23 22 22 22 22 21 21 21
27 26 25 26 25 24 24 24 24 24 24 24 23 23 23 23 23 23 23 23 23 23 23 23 22 22 21 21 20 22 22 22 22 22 22 23 23 22 22 22 22 21 21
27 27 26 26 25 25 24 25 24 23 24 24 24 24 23 24 23 24 23 23 23 22 22 22 22 22 22 22 22 22 22 22 23 23 22 22 23 23 22 22 22 22 21
28 27 26 26 25 24 24 24 23 22 23 24 24 24 23 23 23 23 22 23 23 22 22 22 21 21 22 22 22 22 21 22 24 23 23 23 23 23 23 23 22 22 21
28 27 26 26 25 25 23 24 23 22 24 23 24 24 24 24 23 23 23 23 22 22 22 21 21 21 21 21 21 21 21 22 23 23 23 23 23 23 23 23 22 22 22
26 26 25 25 23 23 23 22 23 24 24 23 24 23 23 23 23 23 23 22 22 21 21 21 21 21 21 20 19 21 21 22 23 23 23 23 23 23 23 23 22 23 23
24 24 24 23 23 23 23 23 22 23 23 23 23 23 23 23 23 23 23 22 22 21 21 20 20 20 20 21 19 17 17 21 23 24 23 23 23 23 23 23 22 22 22
25 23 23 23 23 23 23 23 23 23 23 23 23 24 23 23 23 22 22 22 22 21 21 20 20 20 20 20 20 20 17 18 19 23 23 23 23 23 23 23 22 22 22
24 23 23 23 23 23 23 23 23 22 22 23 23 23 23 22 22 22 22 21 21 20 20 20 19 20 20 19 19 21 21 21 18 19 22 23 21 23 23 23 22 23 22
24 23 23 23 22 22 23 23 23 23 23 23 23 22 22 21 21 20 20 20 20 20 20 20 19 19 19 20 20 20 18 19 22 19 18 19 22 23 23 23 22 22 22
23 23 23 23 22 22 23 23 22 23 22 22 22 22 21 20 20 20 20 20 20 20 20 20 19 19 20 20 21 21 22 21 20 20 18 19 20 22 21 22 22 21 21

GFSSE_925_temp_033.txt.gz
Temp
23 23 23 24 24 23 22 23 24 23 23 23 23 23 23 23 22 22 23 23 23 22 21 21 21 21 21 21 21 20 20 20 20 20 20 20 20 20 20 20 20 20 20
24 23 23 24 24 24 23 22 23 23 23 23 23 23 23 23 22 22 22 22 22 21 21 22 21 21 21 21 21 21 20 20 20 21 20 20 20 20 20 20 20 20 20
24 23 23 24 24 23 23 23 22 23 23 23 23 23 23 23 23 23 22 22 22 22 21 21 21 21 21 21 21 21 20 20 20 20 20 20 20 20 20 20 20 19 19
24 23 24 24 24 23 23 23 23 22 22 22 23 23 23 22 22 22 22 22 22 22 22 22 22 21 21 21 21 20 20 20 20 20 21 20 20 20 20 19 20 19 19
23 24 24 24 24 23 23 23 23 23 22 22 22 22 22 22 22 21 21 21 21 21 21 21 22 22 21 21 21 20 20 21 20 21 21 20 20 20 20 20 20 19 19
23 24 24 24 24 23 23 23 23 23 23 22 22 21 22 21 21 21 21 22 21 21 21 22 22 22 21 21 21 21 21 21 21 21 20 20 20 20 20 19 19 19 19
23 23 23 24 23 23 23 23 23 23 22 22 22 21 21 21 21 21 22 22 22 22 21 21 21 22 22 21 21 21 21 21 21 21 21 21 21 20 19 19 19 19 19
23 23 23 23 23 23 23 22 22 22 22 21 21 21 21 21 21 21 22 22 22 22 22 22 21 22 22 22 22 21 21 21 21 21 21 21 21 20 20 20 19 19 19
23 23 23 23 23 22 22 22 21 22 21 21 21 22 22 22 22 22 22 22 22 22 22 22 22 22 22 22 22 21 22 21 21 21 21 22 21 20 20 20 20 19 19
22 22 23 23 23 23 22 21 21 21 21 21 21 22 22 22 22 22 22 22 22 21 21 22 22 22 23 22 22 22 22 21 21 22 22 22 22 21 20 20 19 19 19
21 22 23 23 23 23 22 22 21 21 21 21 21 21 21 22 22 22 22 22 22 22 21 21 22 22 22 22 22 22 22 22 22 22 22 22 21 21 20 20 19 19 19
21 22 23 23 23 23 23 22 22 22 22 21 22 21 22 22 22 22 22 22 22 22 21 21 21 22 22 22 22 22 22 22 22 22 22 22 21 21 20 20 20 19 19
23 22 23 23 23 23 23 23 23 22 22 22 23 22 22 22 22 22 22 22 22 22 22 22 21 21 22 22 22 22 22 22 23 22 22 22 22 21 21 20 20 19 19
23 23 23 23 24 23 23 23 23 23 23 23 23 23 23 23 22 22 23 23 23 22 22 22 22 22 22 22 22 22 22 21 22 22 22 22 22 22 21 21 20 20 19
23 23 24 24 23 23 23 23 23 24 23 23 23 23 23 23 23 23 23 23 23 22 22 22 22 22 22 22 22 22 22 22 22 22 22 22 22 22 22 21 20 19 19
24 24 24 24 24 24 24 23 24 23 23 23 23 23 23 23 23 23 23 23 23 23 23 23 22 23 22 22 21 22 22 22 22 22 22 22 22 22 22 21 21 20 20
25 25 25 24 24 24 24 24 23 23 23 23 23 23 24 23 22 22 22 23 23 23 23 22 22 22 21 21 21 21 21 22 22 22 22 22 22 22 22 22 21 21 21
25 24 25 25 24 24 23 24 24 23 22 22 23 23 23 23 23 23 23 23 23 22 22 22 22 21 21 20 21 21 21 22 22 22 22 22 22 22 22 22 22 22 21
26 25 25 25 24 23 23 24 23 23 23 23 23 24 24 24 23 22 22 23 23 22 22 22 21 21 20 20 20 21 21 21 22 22 22 22 22 22 22 22 22 22 22
26 26 25 26 25 24 24 22 22 22 22 23 23 24 24 24 24 23 23 22 22 22 22 21 21 20 20 20 20 20 20 21 21 22 22 22 22 22 22 22 22 22 22
26 25 25 26 25 24 23 23 22 22 22 23 23 23 23 23 23 23 22 22 22 22 21 21 20 20 19 20 18 19 20 21 21 22 23 23 23 23 22 23 22 22 22
24 25 25 24 24 22 22 22 22 22 23 23 23 23 23 22 22 22 22 22 22 21 21 20 20 19 19 19 19 18 18 20 22 23 23 24 24 23 23 23 23 23 22
24 24 23 22 22 22 22 23 22 22 23 23 23 22 22 22 22 22 21 21 21 20 20 20 19 19 19 18 18 20 17 18 18 22 23 23 23 23 23 23 23 23 22
23 23 23 22 22 22 22 23 23 22 22 22 22 21 21 21 21 21 21 20 20 20 20 20 19 19 18 18 18 19 20 20 18 19 21 22 23 22 21 22 23 22 22
23 22 22 22 22 22 22 22 23 22 21 21 21 21 20 20 20 20 20 20 20 20 20 19 19 19 18 19 19 19 19 19 19 18 19 20 22 20 20 22 22 22 22
22 22 22 22 22 22 22 22 22 22 21 22 21 20 20 20 20 19 19 20 20 20 20 19 19 19 19 19 19 19 20 19 18 18 17 18 18 19 19 20 21 22 21